User: anonymous   Login
Location: Caltech
(34.1382°N, 118.1253°W)
Time: 23:24:14
(UTC-07:00)
Language:

Cosmos 1606 - Orbit

View from above orbital plane
View from above orbital plane
View from above satellite
View from above satellite

Ground track
Ground track

The orbit data is extracted from the following two-line orbital elements,

1 15369U 84111A   18169.48801400 +.00000729 +00000-0 +36029-4 0  9991
2 15369 082.5278 122.1088 0019358 069.6303 290.7007 15.16053511835956
Epoch (UTC): 18 June 2018 11:42:44
Eccentricity: 0.0019358
inclination: 82.5278°
perigee height: 504 km
apogee height: 531 km
right ascension of ascending node: 122.1088°
argument of perigee: 69.6303°
revolutions per day: 15.16053511
mean anomaly at epoch: 290.7007°
orbit number at epoch: 83595

The dashed part of the orbit path shows where the satellite is in the earth's shadow,  

DLR